This is the latest recevied weather packets stored in our database for station/object F5ZQC-13. If no packets are shown the sender has not sent any weather packets the latest 10 day(s).
| Time | Temp. | Humidity | Pressure | Rain* | Wind** | Luminosity | Snow |
|---|---|---|---|---|---|---|---|
| 1778084469 | 16.67° C | 42% | 1009.6 hPa | 0.25 mm | - | - | - |
| 1778084343 | 16.67° C | 42% | 1009.6 hPa | 0.25 mm | - | - | - |
| 1778084226 | 16.67° C | 41% | 1009.6 hPa | 0.25 mm | - | - | - |
| 1778084098 | 16.67° C | 41% | 1009.6 hPa | 0.25 mm | - | - | - |
| 1778083976 | 16.67° C | 42% | 1009.5 hPa | 0.25 mm | - | - | - |
| 1778083658 | 17.22° C | 42% | 1009.5 hPa | 0.25 mm | - | - | - |
| 1778083616 | 17.22° C | 42% | 1009.5 hPa | 0.25 mm | - | - | - |
| 1778082998 | 17.22° C | 42% | 1009.4 hPa | 0.25 mm | - | - | - |
| 1778082387 | 17.78° C | 42% | 1009.3 hPa | 0.25 mm | - | - | - |
| 1778082142 | 17.78° C | 41% | 1009.4 hPa | 0.25 mm | - | - | - |
| 1778082020 | 17.78° C | 41% | 1009.2 hPa | 0.25 mm | - | - | - |
| 1778081775 | 18.33° C | 41% | 1009.3 hPa | 0.25 mm | - | - | - |
| 1778081531 | 18.33° C | 39% | 1009.3 hPa | 0.25 mm | - | - | - |
| 1778081411 | 18.33° C | 39% | 1009.3 hPa | 0.25 mm | - | - | - |
| 1778081285 | 18.33° C | 39% | 1009.2 hPa | 0.25 mm | - | - | - |
| 1778081163 | 18.33° C | 39% | 1009.2 hPa | 0.25 mm | - | - | - |
| 1778080922 | 18.89° C | 38% | 1009.1 hPa | 0.25 mm | - | - | - |
| 1778080712 | 18.89° C | 38% | 1009.2 hPa | 0.25 mm | - | - | - |
| 1778080674 | 18.89° C | 38% | 1009.2 hPa | 0.25 mm | - | - | - |
| 1778079944 | 20° C | 35% | 1009.1 hPa | 0.25 mm | - | - | - |
| 1778079819 | 20° C | 35% | 1009.1 hPa | 0.25 mm | - | - | - |
| 1778079455 | 20.56° C | 33% | 1009 hPa | 0.25 mm | - | - | - |
| 1778079210 | 21.11° C | 32% | 1009.1 hPa | 0.25 mm | - | - | - |
| 1778079090 | 21.11° C | 32% | 1009.1 hPa | 0.25 mm | - | - | - |
| 1778078963 | 21.11° C | 31% | 1009.1 hPa | 0.25 mm | - | - | - |
* Rain since midnight (hover to see other rain measurements)
** Current wind speed in m/s (hover to see current wind gust speed)